Location: Bullenkuhlen
(53.7689°N, 9.7495°E)
Time: 02:01:52
(UTC+00:00)

Cosmos 1515 Rocket - Pass Details

Date: 09 April 2020
Orbit: 606 x 630 km, 82.5° (Epoch: 06 June)

Event Time Altitude Azimuth Distance (km) Brightness Sun altitude
Exits shadow 23:45:24 50° 12° (NNE) 786 4.3 -28.0°
Drops below altitude 10° 23:48:41 10° 12° (NNE) 1,987 7.1 -27.9°
Sets 23:50:56 0° 12° (NNE) 2,901 8.3 -27.9°
